Year,Month,Day,Hour,Minute,Value (Times are PST for windspeed in km/hr)
2016,08,22,00,00,11.80
2016,08,22,00,01,18.10
2016,08,22,00,02,10.70
2016,08,22,00,03,9.80
2016,08,22,00,04,15.60
2016,08,22,00,05,9.70
2016,08,22,00,06,8.40
2016,08,22,00,07,14.40
2016,08,22,00,08,8.60
2016,08,22,00,09,11.70
2016,08,22,00,10,5.50
2016,08,22,00,11,12.80
2016,08,22,00,12,7.80
2016,08,22,00,13,12.50
2016,08,22,00,14,14.60
2016,08,22,00,15,14.40
2016,08,22,00,16,14.40
2016,08,22,00,17,9.40
2016,08,22,00,18,13.90
2016,08,22,00,19,12.80
2016,08,22,00,20,14.30
2016,08,22,00,21,19.60
2016,08,22,00,22,17.10
2016,08,22,00,23,12.90
2016,08,22,00,24,14.50
2016,08,22,00,25,17.30
2016,08,22,00,26,12.10
2016,08,22,00,27,9.30
2016,08,22,00,28,12.80
2016,08,22,00,29,11.90
2016,08,22,00,30,13.60
2016,08,22,00,31,14.00
2016,08,22,00,32,13.20
2016,08,22,00,33,11.60
2016,08,22,00,34,7.90
2016,08,22,00,35,7.40
2016,08,22,00,36,8.90
2016,08,22,00,37,10.20
2016,08,22,00,38,9.20
2016,08,22,00,39,10.20
2016,08,22,00,40,7.80
2016,08,22,00,41,12.50
2016,08,22,00,42,8.60
2016,08,22,00,43,7.90
2016,08,22,00,44,9.50
2016,08,22,00,45,8.10
2016,08,22,00,46,10.30
2016,08,22,00,47,6.70
2016,08,22,00,48,15.10
2016,08,22,00,49,9.00
2016,08,22,00,50,9.60
2016,08,22,00,51,12.40
2016,08,22,00,52,6.00
2016,08,22,00,53,8.40
2016,08,22,00,54,11.10
2016,08,22,00,55,15.20
2016,08,22,00,56,10.40
2016,08,22,00,57,15.30
2016,08,22,00,58,6.90
2016,08,22,00,59,6.80
2016,08,22,01,00,14.70
2016,08,22,01,01,14.70
2016,08,22,01,02,12.30
2016,08,22,01,03,10.20
2016,08,22,01,04,10.50
2016,08,22,01,05,15.80
2016,08,22,01,06,11.30
2016,08,22,01,07,8.10
2016,08,22,01,08,15.30
2016,08,22,01,09,11.00
2016,08,22,01,10,11.50
2016,08,22,01,11,13.20
2016,08,22,01,12,10.50
2016,08,22,01,13,9.90
2016,08,22,01,14,9.90
2016,08,22,01,15,8.10
2016,08,22,01,16,10.10
2016,08,22,01,17,11.80
2016,08,22,01,18,14.70
2016,08,22,01,19,10.90
2016,08,22,01,20,9.20
2016,08,22,01,21,15.90
2016,08,22,01,22,9.30
2016,08,22,01,23,8.60
2016,08,22,01,24,10.90
2016,08,22,01,25,12.20
2016,08,22,01,26,12.20
2016,08,22,01,27,13.60
2016,08,22,01,28,10.00
2016,08,22,01,29,9.40
2016,08,22,01,30,6.90
2016,08,22,01,31,15.30
2016,08,22,01,32,14.70
2016,08,22,01,33,12.50
2016,08,22,01,34,11.90
2016,08,22,01,35,9.00
2016,08,22,01,36,9.00
2016,08,22,01,37,13.30
2016,08,22,01,38,5.70
2016,08,22,01,39,5.30
2016,08,22,01,40,11.20
2016,08,22,01,41,8.80
2016,08,22,01,42,11.20
2016,08,22,01,43,7.20
2016,08,22,01,44,8.30
2016,08,22,01,45,10.00
2016,08,22,01,46,9.40
2016,08,22,01,47,9.70
2016,08,22,01,48,7.30
2016,08,22,01,49,7.70
2016,08,22,01,50,7.70
2016,08,22,01,51,11.30
2016,08,22,01,52,9.40
2016,08,22,01,53,7.70
2016,08,22,01,54,13.20
2016,08,22,01,55,10.60
2016,08,22,01,56,6.70
2016,08,22,01,57,9.60
2016,08,22,01,58,9.00
2016,08,22,01,59,10.10
2016,08,22,02,00,11.70
2016,08,22,02,01,8.00
2016,08,22,02,02,11.10
2016,08,22,02,03,7.10
2016,08,22,02,04,11.00
2016,08,22,02,05,8.00
2016,08,22,02,06,8.10
2016,08,22,02,07,6.60
2016,08,22,02,08,8.90
2016,08,22,02,09,8.80
2016,08,22,02,10,12.70
2016,08,22,02,11,9.80
2016,08,22,02,12,9.70
2016,08,22,02,13,7.20
2016,08,22,02,14,11.70
2016,08,22,02,15,8.60
2016,08,22,02,16,8.30
2016,08,22,02,17,14.40
2016,08,22,02,18,11.30
2016,08,22,02,19,12.10
2016,08,22,02,20,13.80
2016,08,22,02,21,16.60
2016,08,22,02,22,13.30
2016,08,22,02,23,12.60
2016,08,22,02,24,12.40
2016,08,22,02,25,13.50
2016,08,22,02,26,6.80
2016,08,22,02,27,9.70
2016,08,22,02,28,11.70
2016,08,22,02,29,7.40
2016,08,22,02,30,9.70
2016,08,22,02,31,10.10
2016,08,22,02,32,4.40
2016,08,22,02,33,6.00
2016,08,22,02,34,4.00
2016,08,22,02,35,6.10
2016,08,22,02,36,4.70
2016,08,22,02,37,10.70
2016,08,22,02,38,9.90
2016,08,22,02,39,8.50
2016,08,22,02,40,7.60
2016,08,22,02,41,10.10
2016,08,22,02,42,4.40
2016,08,22,02,43,13.40
2016,08,22,02,44,6.10
2016,08,22,02,45,7.60
2016,08,22,02,46,7.30
2016,08,22,02,47,9.70
2016,08,22,02,48,9.60
2016,08,22,02,49,7.00
2016,08,22,02,50,8.50
2016,08,22,02,51,9.00
2016,08,22,02,52,8.70
2016,08,22,02,53,8.90
2016,08,22,02,54,11.10
2016,08,22,02,55,9.20
2016,08,22,02,56,7.80
2016,08,22,02,57,3.60
2016,08,22,02,58,4.70
2016,08,22,02,59,8.00
2016,08,22,03,00,5.80
2016,08,22,03,01,8.10
2016,08,22,03,02,8.80
2016,08,22,03,03,7.40
2016,08,22,03,04,10.20
2016,08,22,03,05,8.20
2016,08,22,03,06,5.60
2016,08,22,03,07,8.10
2016,08,22,03,08,6.80
2016,08,22,03,09,5.40
2016,08,22,03,10,8.50
2016,08,22,03,11,8.10
2016,08,22,03,12,5.20
2016,08,22,03,13,6.20
2016,08,22,03,14,7.60
2016,08,22,03,15,6.60
2016,08,22,03,16,8.90
2016,08,22,03,17,6.60
2016,08,22,03,18,6.10
2016,08,22,03,19,10.00
2016,08,22,03,20,7.20
2016,08,22,03,21,5.20
2016,08,22,03,22,8.40
2016,08,22,03,23,8.70
2016,08,22,03,24,10.60
2016,08,22,03,25,9.40
2016,08,22,03,26,6.40
2016,08,22,03,27,6.40
2016,08,22,03,28,5.90
2016,08,22,03,29,7.20
2016,08,22,03,30,9.90
2016,08,22,03,31,6.70
2016,08,22,03,32,6.80
2016,08,22,03,33,5.90
2016,08,22,03,34,4.00
2016,08,22,03,35,5.00
2016,08,22,03,36,6.50
2016,08,22,03,37,8.50
2016,08,22,03,38,4.90
2016,08,22,03,39,7.00
2016,08,22,03,40,8.40
2016,08,22,03,41,7.70
2016,08,22,03,42,9.00
2016,08,22,03,43,8.20
2016,08,22,03,44,6.60
2016,08,22,03,45,6.00
2016,08,22,03,46,4.60
2016,08,22,03,47,5.20
2016,08,22,03,48,5.80
2016,08,22,03,49,7.00
2016,08,22,03,50,6.70
2016,08,22,03,51,6.70
2016,08,22,03,52,5.80
2016,08,22,03,53,8.90
2016,08,22,03,54,8.80
2016,08,22,03,55,8.10
2016,08,22,03,56,7.60
2016,08,22,03,57,5.10
2016,08,22,03,58,5.30
2016,08,22,03,59,5.20
2016,08,22,04,00,2.90
2016,08,22,04,01,7.50
2016,08,22,04,02,6.40
2016,08,22,04,03,7.90
2016,08,22,04,04,9.00
2016,08,22,04,05,8.40
2016,08,22,04,06,10.10
2016,08,22,04,07,8.00
2016,08,22,04,08,8.80
2016,08,22,04,09,6.60
2016,08,22,04,10,7.30
2016,08,22,04,11,5.80
2016,08,22,04,12,7.40
2016,08,22,04,13,7.00
2016,08,22,04,14,7.30
2016,08,22,04,15,7.10
2016,08,22,04,16,7.00
2016,08,22,04,17,6.50
2016,08,22,04,18,6.70
2016,08,22,04,19,6.20
2016,08,22,04,20,5.30
2016,08,22,04,21,6.90
2016,08,22,04,22,5.80
2016,08,22,04,23,5.40
2016,08,22,04,24,5.00
2016,08,22,04,25,5.30
2016,08,22,04,26,5.90
2016,08,22,04,27,3.80
2016,08,22,04,28,3.90
2016,08,22,04,29,3.00
2016,08,22,04,30,5.00
2016,08,22,04,31,6.80
2016,08,22,04,32,5.60
2016,08,22,04,33,3.50
2016,08,22,04,34,3.10
2016,08,22,04,35,2.90
2016,08,22,04,36,2.20
2016,08,22,04,37,1.90
2016,08,22,04,38,4.30
2016,08,22,04,39,4.30
2016,08,22,04,40,3.90
2016,08,22,04,41,4.30
2016,08,22,04,42,4.00
2016,08,22,04,43,4.00
2016,08,22,04,44,4.30
2016,08,22,04,45,1.90
2016,08,22,04,46,2.80
2016,08,22,04,47,3.00
2016,08,22,04,48,1.20
2016,08,22,04,49,4.30
2016,08,22,04,50,3.90
2016,08,22,04,51,2.40
2016,08,22,04,52,2.20
2016,08,22,04,53,6.30
2016,08,22,04,54,5.70
2016,08,22,04,55,3.90
2016,08,22,04,56,3.80
2016,08,22,04,57,4.10
2016,08,22,04,58,5.40
2016,08,22,04,59,3.50
2016,08,22,05,00,3.90
2016,08,22,05,01,2.80
2016,08,22,05,02,4.80
2016,08,22,05,03,4.10
2016,08,22,05,04,2.40
2016,08,22,05,05,3.30
2016,08,22,05,06,2.60
2016,08,22,05,07,1.90
2016,08,22,05,08,2.40
2016,08,22,05,09,3.40
2016,08,22,05,10,3.50
2016,08,22,05,11,1.90
2016,08,22,05,12,1.50
2016,08,22,05,13,3.20
2016,08,22,05,14,1.50
2016,08,22,05,15,1.40
2016,08,22,05,16,1.80
2016,08,22,05,17,1.90
2016,08,22,05,18,2.10
2016,08,22,05,19,3.40
2016,08,22,05,20,2.30
2016,08,22,05,21,2.60
2016,08,22,05,22,1.70
2016,08,22,05,23,1.90
2016,08,22,05,24,2.10
2016,08,22,05,25,3.90
2016,08,22,05,26,5.40
2016,08,22,05,27,3.70
2016,08,22,05,28,3.70
2016,08,22,05,29,1.10
2016,08,22,05,30,6.20
2016,08,22,05,31,3.10
2016,08,22,05,32,3.10
2016,08,22,05,33,0.30
2016,08,22,05,34,0.00
2016,08,22,05,35,0.00
2016,08,22,05,36,0.20
2016,08,22,05,37,0.50
2016,08,22,05,38,2.30
2016,08,22,05,39,1.50
2016,08,22,05,40,1.40
2016,08,22,05,41,1.90
2016,08,22,05,42,2.70
2016,08,22,05,43,2.80
2016,08,22,05,44,2.00
2016,08,22,05,45,1.80
2016,08,22,05,46,0.60
2016,08,22,05,47,3.00
2016,08,22,05,48,4.80
2016,08,22,05,49,2.30
2016,08,22,05,50,2.90
2016,08,22,05,51,3.90
2016,08,22,05,52,2.80
2016,08,22,05,53,1.40
2016,08,22,05,54,0.70
2016,08,22,05,55,1.20
2016,08,22,05,56,1.50
2016,08,22,05,57,0.60
2016,08,22,05,58,2.20
2016,08,22,05,59,2.70
2016,08,22,06,00,2.30
2016,08,22,06,01,1.60
2016,08,22,06,02,2.60
2016,08,22,06,03,1.30
2016,08,22,06,04,1.90
2016,08,22,06,05,2.90
2016,08,22,06,06,1.80
2016,08,22,06,07,1.40
2016,08,22,06,08,2.60
2016,08,22,06,09,1.40
2016,08,22,06,10,0.30
2016,08,22,06,11,0.70
2016,08,22,06,12,1.90
2016,08,22,06,13,1.80
2016,08,22,06,14,2.00
2016,08,22,06,15,1.20
2016,08,22,06,16,0.00
2016,08,22,06,17,0.00
2016,08,22,06,18,0.00
2016,08,22,06,19,0.00
2016,08,22,06,20,0.00
2016,08,22,06,21,0.20
2016,08,22,06,22,2.50
2016,08,22,06,23,1.70
2016,08,22,06,24,2.90
2016,08,22,06,25,1.80
2016,08,22,06,26,4.10
2016,08,22,06,27,3.40
2016,08,22,06,28,2.60
2016,08,22,06,29,5.10
2016,08,22,06,30,3.50
2016,08,22,06,31,3.60
2016,08,22,06,32,3.70
2016,08,22,06,33,2.20
2016,08,22,06,34,2.80
2016,08,22,06,35,4.30
2016,08,22,06,36,3.10
2016,08,22,06,37,4.10
2016,08,22,06,38,2.90
2016,08,22,06,39,2.50
2016,08,22,06,40,2.60
2016,08,22,06,41,4.10
2016,08,22,06,42,4.10
2016,08,22,06,43,3.10
2016,08,22,06,44,2.70
2016,08,22,06,45,1.60
2016,08,22,06,46,2.10
2016,08,22,06,47,1.50
2016,08,22,06,48,1.80
2016,08,22,06,49,2.60
2016,08,22,06,50,4.10
2016,08,22,06,51,4.40
2016,08,22,06,52,5.30
2016,08,22,06,53,3.90
2016,08,22,06,54,4.20
2016,08,22,06,55,4.20
2016,08,22,06,56,4.20
2016,08,22,06,57,3.90
2016,08,22,06,58,1.50
2016,08,22,06,59,1.00
2016,08,22,07,00,2.90
2016,08,22,07,01,2.80
2016,08,22,07,02,2.00
2016,08,22,07,03,1.40
2016,08,22,07,04,2.00
2016,08,22,07,05,4.90
2016,08,22,07,06,4.30
2016,08,22,07,07,3.00
2016,08,22,07,08,4.10
2016,08,22,07,09,4.70
2016,08,22,07,10,3.30
2016,08,22,07,11,4.00
2016,08,22,07,12,4.90
2016,08,22,07,13,4.70
2016,08,22,07,14,6.60
2016,08,22,07,15,3.80
2016,08,22,07,16,3.10
2016,08,22,07,17,3.50
2016,08,22,07,18,6.50
2016,08,22,07,19,2.60
2016,08,22,07,20,3.40
2016,08,22,07,21,4.90
2016,08,22,07,22,1.50
2016,08,22,07,23,2.30
2016,08,22,07,24,4.20
2016,08,22,07,25,5.10
2016,08,22,07,26,5.60
2016,08,22,07,27,3.90
2016,08,22,07,28,2.80
2016,08,22,07,29,6.20
2016,08,22,07,30,6.40
2016,08,22,07,31,5.90
2016,08,22,07,32,3.90
2016,08,22,07,33,4.50
2016,08,22,07,34,5.60
2016,08,22,07,35,4.10
2016,08,22,07,36,2.30
2016,08,22,07,37,5.50
2016,08,22,07,38,1.80
2016,08,22,07,39,5.90
2016,08,22,07,40,5.10
2016,08,22,07,41,4.60
2016,08,22,07,42,6.00
2016,08,22,07,43,5.20
2016,08,22,07,44,6.40
2016,08,22,07,45,8.90
2016,08,22,07,46,8.10
2016,08,22,07,47,6.90
2016,08,22,07,48,6.80
2016,08,22,07,49,6.50
2016,08,22,07,50,5.60
2016,08,22,07,51,7.20
2016,08,22,07,52,5.30
2016,08,22,07,53,5.20
2016,08,22,07,54,4.50
2016,08,22,07,55,7.00
2016,08,22,07,56,6.00
2016,08,22,07,57,3.00
2016,08,22,07,58,2.10
2016,08,22,07,59,2.50
2016,08,22,08,00,5.80
2016,08,22,08,01,4.60
2016,08,22,08,02,4.70
2016,08,22,08,03,6.10
2016,08,22,08,04,2.10
2016,08,22,08,05,4.30
2016,08,22,08,06,2.30
2016,08,22,08,07,3.70
2016,08,22,08,08,0.60
2016,08,22,08,09,3.10
2016,08,22,08,10,4.70
2016,08,22,08,11,3.10
2016,08,22,08,12,5.30
2016,08,22,08,13,5.80
2016,08,22,08,14,7.20
2016,08,22,08,15,6.40
2016,08,22,08,16,3.50
2016,08,22,08,17,3.90
2016,08,22,08,18,8.00
2016,08,22,08,19,6.60
2016,08,22,08,20,3.90
2016,08,22,08,21,5.60
2016,08,22,08,22,6.80
2016,08,22,08,23,6.60
2016,08,22,08,24,4.40
2016,08,22,08,25,3.90
2016,08,22,08,26,3.80
2016,08,22,08,27,6.30
2016,08,22,08,28,3.50
2016,08,22,08,29,4.70
2016,08,22,08,30,4.10
2016,08,22,08,31,1.90
2016,08,22,08,32,1.90
2016,08,22,08,33,1.90
2016,08,22,08,34,1.90
2016,08,22,08,35,2.90
2016,08,22,08,36,3.80
2016,08,22,08,37,6.80
2016,08,22,08,38,6.60
2016,08,22,08,39,6.20
2016,08,22,08,40,6.00
2016,08,22,08,41,5.40
2016,08,22,08,42,3.90
2016,08,22,08,43,4.70
2016,08,22,08,44,3.20
2016,08,22,08,45,2.00
2016,08,22,08,46,5.90
2016,08,22,08,47,4.40
2016,08,22,08,48,2.80
2016,08,22,08,49,5.30
2016,08,22,08,50,1.60
2016,08,22,08,51,4.10
2016,08,22,08,52,6.10
2016,08,22,08,53,4.60
2016,08,22,08,54,2.50
2016,08,22,08,55,5.10
2016,08,22,08,56,5.10
2016,08,22,08,57,5.00
2016,08,22,08,58,4.20
2016,08,22,08,59,3.00
2016,08,22,09,00,1.90
2016,08,22,09,01,0.90
2016,08,22,09,02,0.80
2016,08,22,09,03,1.10
2016,08,22,09,04,1.50
2016,08,22,09,05,2.30
2016,08,22,09,06,2.30
2016,08,22,09,07,0.60
2016,08,22,09,08,5.60
2016,08,22,09,09,5.90
2016,08,22,09,10,4.70
2016,08,22,09,11,6.00
2016,08,22,09,12,5.20
2016,08,22,09,13,6.80
2016,08,22,09,14,4.70
2016,08,22,09,15,4.40
2016,08,22,09,16,4.60
2016,08,22,09,17,3.80
2016,08,22,09,18,5.00
2016,08,22,09,19,5.40
2016,08,22,09,20,6.30
2016,08,22,09,21,5.70
2016,08,22,09,22,4.70
2016,08,22,09,23,5.80
2016,08,22,09,24,5.80
2016,08,22,09,25,5.80
2016,08,22,09,26,4.30
2016,08,22,09,27,6.00
2016,08,22,09,28,6.70
2016,08,22,09,29,6.20
2016,08,22,09,30,6.70
2016,08,22,09,31,5.30
2016,08,22,09,32,7.30
2016,08,22,09,33,7.00
2016,08,22,09,34,4.20
2016,08,22,09,35,2.10
2016,08,22,09,36,4.70
2016,08,22,09,37,6.40
2016,08,22,09,38,5.90
2016,08,22,09,39,4.00
2016,08,22,09,40,7.30
2016,08,22,09,41,5.40
2016,08,22,09,42,6.10
2016,08,22,09,43,7.70
2016,08,22,09,44,6.00
2016,08,22,09,45,5.30
2016,08,22,09,46,7.60
2016,08,22,09,47,6.00
2016,08,22,09,48,6.50
2016,08,22,09,49,6.80
2016,08,22,09,50,4.00
2016,08,22,09,51,6.40
2016,08,22,09,52,7.40
2016,08,22,09,53,5.80
2016,08,22,09,54,7.10
2016,08,22,09,55,7.70
2016,08,22,09,56,7.50
2016,08,22,09,57,9.70
2016,08,22,09,58,7.40
2016,08,22,09,59,8.40
2016,08,22,10,00,7.50
2016,08,22,10,01,9.20
2016,08,22,10,02,6.90
2016,08,22,10,03,7.10
2016,08,22,10,04,6.70
2016,08,22,10,05,5.50
2016,08,22,10,06,5.30
2016,08,22,10,07,4.50
2016,08,22,10,08,6.20
2016,08,22,10,09,7.20
2016,08,22,10,10,6.70
2016,08,22,10,11,5.10
2016,08,22,10,12,6.50
2016,08,22,10,13,3.90
2016,08,22,10,14,4.70
2016,08,22,10,15,3.80
2016,08,22,10,16,2.60
2016,08,22,10,17,4.10
2016,08,22,10,18,2.40
2016,08,22,10,19,6.40
2016,08,22,10,20,4.00
2016,08,22,10,21,0.70
2016,08,22,10,22,0.20
2016,08,22,10,23,1.40
2016,08,22,10,24,4.60
2016,08,22,10,25,6.00
2016,08,22,10,26,8.40
2016,08,22,10,27,6.30
2016,08,22,10,28,6.50
2016,08,22,10,29,7.50
2016,08,22,10,30,4.70
2016,08,22,10,31,7.10
2016,08,22,10,32,6.30
2016,08,22,10,33,9.30
2016,08,22,10,34,8.80
2016,08,22,10,35,7.80
2016,08,22,10,36,9.40
2016,08,22,10,37,10.10
2016,08,22,10,38,10.10
2016,08,22,10,39,10.90
2016,08,22,10,40,8.40
2016,08,22,10,41,11.50
2016,08,22,10,42,10.20
2016,08,22,10,43,10.50
2016,08,22,10,44,10.30
2016,08,22,10,45,7.90
2016,08,22,10,46,10.60
2016,08,22,10,47,5.40
2016,08,22,10,48,9.50
2016,08,22,10,49,7.90
2016,08,22,10,50,5.00
2016,08,22,10,51,6.50
2016,08,22,10,52,4.80
2016,08,22,10,53,7.50
2016,08,22,10,54,9.30
2016,08,22,10,55,9.70
2016,08,22,10,56,8.90
2016,08,22,10,57,9.70
2016,08,22,10,58,7.20
2016,08,22,10,59,7.20
2016,08,22,11,00,8.00
2016,08,22,11,01,12.50
2016,08,22,11,02,10.60
2016,08,22,11,03,12.90
2016,08,22,11,04,10.50
2016,08,22,11,05,6.20
2016,08,22,11,06,12.40
2016,08,22,11,07,7.00
2016,08,22,11,08,5.30
2016,08,22,11,09,6.40
2016,08,22,11,10,6.70
2016,08,22,11,11,11.30
2016,08,22,11,12,8.90
2016,08,22,11,13,8.10
2016,08,22,11,14,8.50
2016,08,22,11,15,8.70
2016,08,22,11,16,9.30
2016,08,22,11,17,13.70
2016,08,22,11,18,10.00
2016,08,22,11,19,8.20
2016,08,22,11,20,5.60
2016,08,22,11,21,7.90
2016,08,22,11,22,13.50
2016,08,22,11,23,10.50
2016,08,22,11,24,9.70
2016,08,22,11,25,4.30
2016,08,22,11,26,6.70
2016,08,22,11,27,9.50
2016,08,22,11,28,8.10
2016,08,22,11,29,7.90
2016,08,22,11,30,4.10
2016,08,22,11,31,4.70
2016,08,22,11,32,7.60
2016,08,22,11,33,11.30
2016,08,22,11,34,8.20
2016,08,22,11,35,8.60
2016,08,22,11,36,5.90
2016,08,22,11,37,5.70
2016,08,22,11,38,9.60
2016,08,22,11,39,7.70
2016,08,22,11,40,9.00
2016,08,22,11,41,13.30
2016,08,22,11,42,7.00
2016,08,22,11,43,9.50
2016,08,22,11,44,8.80
2016,08,22,11,45,12.10
2016,08,22,11,46,10.50
2016,08,22,11,47,11.90
2016,08,22,11,48,6.40
2016,08,22,11,49,13.00
2016,08,22,11,50,10.10
2016,08,22,11,51,7.00
2016,08,22,11,52,8.70
2016,08,22,11,53,11.10
2016,08,22,11,54,12.20
2016,08,22,11,55,11.00
2016,08,22,11,56,10.30
2016,08,22,11,57,13.80
2016,08,22,11,58,12.90
2016,08,22,11,59,9.40
2016,08,22,12,00,10.80
2016,08,22,12,01,13.00
2016,08,22,12,02,17.80
2016,08,22,12,03,17.10
2016,08,22,12,04,13.80
2016,08,22,12,05,15.00
2016,08,22,12,06,12.30
2016,08,22,12,07,10.30
2016,08,22,12,08,6.50
2016,08,22,12,09,8.00
2016,08,22,12,10,12.90
2016,08,22,12,11,17.10
2016,08,22,12,12,15.80
2016,08,22,12,13,16.30
2016,08,22,12,14,16.00
2016,08,22,12,15,14.50
2016,08,22,12,16,14.90
2016,08,22,12,17,13.10
2016,08,22,12,18,13.60
2016,08,22,12,19,8.40
2016,08,22,12,20,12.00
2016,08,22,12,21,12.30
2016,08,22,12,22,12.70
2016,08,22,12,23,14.40
2016,08,22,12,24,12.70
2016,08,22,12,25,10.70
2016,08,22,12,26,11.20
2016,08,22,12,27,17.30
2016,08,22,12,28,13.00
2016,08,22,12,29,12.90
2016,08,22,12,30,14.20
2016,08,22,12,31,13.80
2016,08,22,12,32,10.20
2016,08,22,12,33,9.50
2016,08,22,12,34,9.80
2016,08,22,12,35,9.10
2016,08,22,12,36,11.00
2016,08,22,12,37,10.70
2016,08,22,12,38,5.60
2016,08,22,12,39,8.10
2016,08,22,12,40,7.30
2016,08,22,12,41,8.60
2016,08,22,12,42,6.60
2016,08,22,12,43,7.30
2016,08,22,12,44,5.60
2016,08,22,12,45,8.90
2016,08,22,12,46,9.40
2016,08,22,12,47,6.00
2016,08,22,12,48,9.20
2016,08,22,12,49,6.00
2016,08,22,12,50,6.50
2016,08,22,12,51,11.30
2016,08,22,12,52,9.00
2016,08,22,12,53,4.20
2016,08,22,12,54,8.60
2016,08,22,12,55,10.10
2016,08,22,12,56,10.60
2016,08,22,12,57,8.30
2016,08,22,12,58,6.60
2016,08,22,12,59,8.20
2016,08,22,13,00,10.00
2016,08,22,13,01,6.50
2016,08,22,13,02,6.60
2016,08,22,13,03,7.10
2016,08,22,13,04,11.30
2016,08,22,13,05,10.80
2016,08,22,13,06,15.90
2016,08,22,13,07,10.70
2016,08,22,13,08,7.90
2016,08,22,13,09,9.90
2016,08,22,13,10,8.20
2016,08,22,13,11,9.40
2016,08,22,13,12,9.80
2016,08,22,13,13,10.70
2016,08,22,13,14,9.30
2016,08,22,13,15,4.50
2016,08,22,13,16,9.00
2016,08,22,13,17,10.40
2016,08,22,13,18,6.40
2016,08,22,13,19,7.90
2016,08,22,13,20,7.80
2016,08,22,13,21,12.30
2016,08,22,13,22,10.80
2016,08,22,13,23,7.00
2016,08,22,13,24,8.50
2016,08,22,13,25,5.50
2016,08,22,13,26,8.60
2016,08,22,13,27,5.30
2016,08,22,13,28,9.90
2016,08,22,13,29,8.40
2016,08,22,13,30,7.00
2016,08,22,13,31,12.10
2016,08,22,13,32,10.30
2016,08,22,13,33,8.90
2016,08,22,13,34,10.10
2016,08,22,13,35,11.30
2016,08,22,13,36,11.10
2016,08,22,13,37,8.60
2016,08,22,13,38,7.60
2016,08,22,13,39,9.30
2016,08,22,13,40,11.00
2016,08,22,13,41,11.90
2016,08,22,13,42,9.20
2016,08,22,13,43,11.60
2016,08,22,13,44,11.70
2016,08,22,13,45,11.90
2016,08,22,13,46,10.60
2016,08,22,13,47,12.90
2016,08,22,13,48,10.40
2016,08,22,13,49,8.10
2016,08,22,13,50,6.50
2016,08,22,13,51,6.50
2016,08,22,13,52,8.50
2016,08,22,13,53,9.50
2016,08,22,13,54,5.90
2016,08,22,13,55,6.80
2016,08,22,13,56,6.70
2016,08,22,13,57,5.60
2016,08,22,13,58,6.60
2016,08,22,13,59,8.60
2016,08,22,14,00,7.30
2016,08,22,14,01,10.60
2016,08,22,14,02,7.90
2016,08,22,14,03,8.10
2016,08,22,14,04,8.90
2016,08,22,14,05,6.40
2016,08,22,14,06,11.40
2016,08,22,14,07,11.30
2016,08,22,14,08,7.20
2016,08,22,14,09,9.10
2016,08,22,14,10,7.20
2016,08,22,14,11,8.40
2016,08,22,14,12,7.20
2016,08,22,14,13,5.70
2016,08,22,14,14,8.50
2016,08,22,14,15,10.90
2016,08,22,14,16,13.50
2016,08,22,14,17,10.90
2016,08,22,14,18,6.60
2016,08,22,14,19,10.40
2016,08,22,14,20,14.00
2016,08,22,14,21,13.90
2016,08,22,14,22,12.90
2016,08,22,14,23,11.30
2016,08,22,14,24,7.80
2016,08,22,14,25,10.60
2016,08,22,14,26,7.20
2016,08,22,14,27,5.70
2016,08,22,14,28,4.90
2016,08,22,14,29,5.50
2016,08,22,14,30,8.00
2016,08,22,14,31,9.50
2016,08,22,14,32,7.70
2016,08,22,14,33,7.60
2016,08,22,14,34,5.40
2016,08,22,14,35,6.80
2016,08,22,14,36,7.40
2016,08,22,14,37,6.60
2016,08,22,14,38,6.40
2016,08,22,14,39,7.10
2016,08,22,14,40,5.60
2016,08,22,14,41,4.00
2016,08,22,14,42,6.80
2016,08,22,14,43,3.40
2016,08,22,14,44,7.10
2016,08,22,14,45,3.90
2016,08,22,14,46,8.90
2016,08,22,14,47,7.70
2016,08,22,14,48,6.60
2016,08,22,14,49,7.00
2016,08,22,14,50,8.40
2016,08,22,14,51,9.10
2016,08,22,14,52,6.80
2016,08,22,14,53,7.00
2016,08,22,14,54,8.00
2016,08,22,14,55,8.20
2016,08,22,14,56,7.30
2016,08,22,14,57,9.30
2016,08,22,14,58,8.40
2016,08,22,14,59,8.20
2016,08,22,15,00,10.70
2016,08,22,15,01,7.70
2016,08,22,15,02,11.40
2016,08,22,15,03,7.80
2016,08,22,15,04,6.90
2016,08,22,15,05,6.40
2016,08,22,15,06,9.60
2016,08,22,15,07,6.90
2016,08,22,15,08,7.60
2016,08,22,15,09,10.30
2016,08,22,15,10,7.00
2016,08,22,15,11,5.80
2016,08,22,15,12,3.80
2016,08,22,15,13,8.20
2016,08,22,15,14,8.10
2016,08,22,15,15,10.00
2016,08,22,15,16,7.30
2016,08,22,15,17,9.10
2016,08,22,15,18,6.90
2016,08,22,15,19,5.00
2016,08,22,15,20,6.30
2016,08,22,15,21,8.60
2016,08,22,15,22,10.10
2016,08,22,15,23,6.10
2016,08,22,15,24,5.50
2016,08,22,15,25,7.20
2016,08,22,15,26,7.20
2016,08,22,15,27,9.30
2016,08,22,15,28,10.70
2016,08,22,15,29,5.50
2016,08,22,15,30,5.60
2016,08,22,15,31,5.90
2016,08,22,15,32,6.80
2016,08,22,15,33,6.30
2016,08,22,15,34,8.50
2016,08,22,15,35,7.50
2016,08,22,15,36,5.90
2016,08,22,15,37,5.50
2016,08,22,15,38,6.70
2016,08,22,15,39,3.40
2016,08,22,15,40,5.30
2016,08,22,15,41,3.70
2016,08,22,15,42,7.50
2016,08,22,15,43,8.80
2016,08,22,15,44,6.90
2016,08,22,15,45,5.40
2016,08,22,15,46,7.00
2016,08,22,15,47,8.40
2016,08,22,15,48,5.60
2016,08,22,15,49,4.40
2016,08,22,15,50,2.50
2016,08,22,15,51,6.40
2016,08,22,15,52,6.70
2016,08,22,15,53,5.20
2016,08,22,15,54,5.10
2016,08,22,15,55,6.50
2016,08,22,15,56,3.90
2016,08,22,15,57,5.70
2016,08,22,15,58,6.30
2016,08,22,15,59,6.40
2016,08,22,16,00,5.90
2016,08,22,16,01,8.70
2016,08,22,16,02,5.80
2016,08,22,16,03,8.60
2016,08,22,16,04,5.60
2016,08,22,16,05,6.00
2016,08,22,16,06,7.80
2016,08,22,16,07,4.50
2016,08,22,16,08,4.50
2016,08,22,16,09,2.50
2016,08,22,16,10,5.90
2016,08,22,16,11,2.30
2016,08,22,16,12,1.90
2016,08,22,16,13,6.60
2016,08,22,16,14,5.10
2016,08,22,16,15,4.50
2016,08,22,16,16,4.30
2016,08,22,16,17,7.70
2016,08,22,16,18,9.80
2016,08,22,16,19,7.50
2016,08,22,16,20,8.00
2016,08,22,16,21,8.40
2016,08,22,16,22,9.80
2016,08,22,16,23,5.40
2016,08,22,16,24,4.70
2016,08,22,16,25,4.10
2016,08,22,16,26,4.20
2016,08,22,16,27,7.10
2016,08,22,16,28,8.60
2016,08,22,16,29,10.20
2016,08,22,16,30,9.00
2016,08,22,16,31,10.90
2016,08,22,16,32,9.30
2016,08,22,16,33,8.40
2016,08,22,16,34,8.40
2016,08,22,16,35,8.70
2016,08,22,16,36,7.10
2016,08,22,16,37,8.80
2016,08,22,16,38,5.50
2016,08,22,16,39,6.50
2016,08,22,16,40,7.50
2016,08,22,16,41,6.00
2016,08,22,16,42,5.60
2016,08,22,16,43,6.80
2016,08,22,16,44,8.90
2016,08,22,16,45,8.20
2016,08,22,16,46,8.20
2016,08,22,16,47,6.80
2016,08,22,16,48,6.50
2016,08,22,16,49,5.10
2016,08,22,16,50,5.20
2016,08,22,16,51,5.00
2016,08,22,16,52,11.30
2016,08,22,16,53,5.40
2016,08,22,16,54,4.70
2016,08,22,16,55,5.70
2016,08,22,16,56,7.40
2016,08,22,16,57,6.90
2016,08,22,16,58,4.00
2016,08,22,16,59,4.10
2016,08,22,17,00,4.00
2016,08,22,17,01,7.90
2016,08,22,17,02,9.10
2016,08,22,17,03,6.00
2016,08,22,17,04,7.60
2016,08,22,17,05,5.50
2016,08,22,17,06,5.50
2016,08,22,17,07,5.00
2016,08,22,17,08,8.40
2016,08,22,17,09,3.10
2016,08,22,17,10,5.60
2016,08,22,17,11,5.10
2016,08,22,17,12,5.30
2016,08,22,17,13,6.50
2016,08,22,17,14,6.10
2016,08,22,17,15,5.10
2016,08,22,17,16,6.00
2016,08,22,17,17,4.70
2016,08,22,17,18,7.10
2016,08,22,17,19,5.90
2016,08,22,17,20,8.50
2016,08,22,17,21,6.70
2016,08,22,17,22,5.10
2016,08,22,17,23,7.20
2016,08,22,17,24,7.20
2016,08,22,17,25,6.10
2016,08,22,17,26,4.80
2016,08,22,17,27,8.40
2016,08,22,17,28,6.00
2016,08,22,17,29,4.70
2016,08,22,17,30,5.90
2016,08,22,17,31,6.80
2016,08,22,17,32,7.50
2016,08,22,17,33,6.50
2016,08,22,17,34,4.80
2016,08,22,17,35,3.40
2016,08,22,17,36,3.70
2016,08,22,17,37,6.50
2016,08,22,17,38,4.30
2016,08,22,17,39,3.40
2016,08,22,17,40,3.40
2016,08,22,17,41,6.80
2016,08,22,17,42,2.90
2016,08,22,17,43,2.80
2016,08,22,17,44,3.70
2016,08,22,17,45,4.10
2016,08,22,17,46,5.60
2016,08,22,17,47,4.20
2016,08,22,17,48,3.90
2016,08,22,17,49,4.20
2016,08,22,17,50,6.00
2016,08,22,17,51,5.60
2016,08,22,17,52,4.20
2016,08,22,17,53,3.90
2016,08,22,17,54,4.70
2016,08,22,17,55,4.80
2016,08,22,17,56,6.70
2016,08,22,17,57,6.00